RH
46 48 46 46 45 48 51 50 66 77 77 85 87 79 66 61 69 70 71 65 58 56 53 51 47 47 52 53 55 64 69 68 65 49 48 81 98 98 99 97 96 96 98 99 98 96 96 100 99 99 98 96 96 95 95 96 94 91 89 90 90 88 89 90 90 90 91 91 90 90 91 93 91 89 90 92 93 94 92 91 93 90 91 93 92 89 88 88 86 88 88 93 96 102 94 54 27
47 46 43 42 44 49 51 50 77 88 78 88 82 74 67 61 68 68 73 71 59 53 47 43 44 48 47 46 47 54 70 82 84 80 85 97 100 99 100 99 98 95 98 100 99 96 97 99 99 99 97 96 96 98 97 94 90 87 87 88 89 89 92 92 91 94 94 92 92 94 93 93 94 93 95 96 97 98 96 95 96 94 94 95 93 91 89 86 83 87 90 93 96 101 85 43 24
47 45 44 47 48 49 52 55 81 89 81 92 83 73 68 65 68 67 71 66 51 46 46 44 44 49 48 45 49 56 69 86 92 94 100 100 99 100 99 100 98 96 99 99 98 96 97 98 98 97 96 97 96 97 93 89 90 88 91 90 90 90 92 93 91 92 92 92 94 97 95 95 96 96 99 98 99 99 99 98 97 98 99 98 98 97 93 90 91 94 94 97 99 97 82 47 26
45 41 44 48 51 56 63 67 85 89 85 92 85 81 78 72 69 65 65 60 50 46 47 43 41 45 47 50 53 60 67 83 95 94 99 100 98 99 99 99 97 97 98 98 98 97 99 97 95 96 96 97 94 93 89 90 93 91 94 93 93 94 95 94 91 92 94 96 93 95 94 95 98 98 99 98 99 98 98 96 90 93 98 99 99 101 99 96 94 97 99 96 93 94 94 65 30
44 41 43 47 56 66 74 81 88 87 89 92 85 90 88 80 76 66 56 55 52 49 47 40 43 46 50 59 60 64 71 79 90 92 96 101 99 99 100 98 97 98 99 99 99 99 98 95 92 94 95 93 92 92 90 92 91 89 90 91 94 93 92 93 93 95 95 92 82 76 75 79 84 81 78 82 91 94 96 95 90 90 90 89 90 95 95 89 79 80 85 79 85 95 98 74 35
45 48 49 52 58 63 74 83 86 86 91 92 84 86 83 77 74 62 49 50 49 49 47 40 42 45 55 66 69 72 68 70 83 91 94 100 100 99 100 97 99 100 99 97 98 99 97 94 89 92 93 88 90 92 94 95 92 93 91 90 93 91 93 94 95 95 90 85 75 66 62 65 66 57 48 52 62 69 81 90 96 97 87 78 76 77 73 77 83 83 80 78 90 94 92 75 41
49 51 54 61 64 67 84 90 88 89 84 84 83 74 70 70 60 52 48 47 47 44 43 41 35 47 67 63 71 76 63 69 82 87 92 98 100 98 99 99 100 99 97 97 98 98 95 91 87 91 92 91 95 92 92 92 91 92 92 92 94 96 96 89 80 75 70 66 61 57 56 59 58 48 37 35 36 36 47 60 74 85 81 71 65 60 53 58 76 86 83 86 96 88 84 68 39
53 55 57 73 80 76 89 94 90 88 77 72 70 58 61 62 48 50 52 47 48 42 40 41 32 56 86 74 84 87 65 73 79 84 93 98 100 98 100 100 98 96 95 97 97 96 94 92 91 94 94 95 94 88 88 90 91 92 94 95 95 96 95 82 64 50 43 41 40 40 41 45 47 42 33 30 30 28 30 33 40 51 58 58 48 42 45 43 51 69 71 83 97 82 68 50 31
57 58 59 72 82 76 81 90 81 72 67 52 40 39 52 56 43 48 51 45 45 42 43 40 30 58 91 87 96 97 83 86 84 90 97 98 101 99 101 99 95 93 92 95 97 96 92 92 94 94 93 94 91 88 89 91 92 91 94 94 95 97 89 72 52 37 32 30 30 30 30 31 37 39 33 29 29 29 28 29 28 33 44 46 37 30 35 36 41 57 56 71 87 65 48 35 27
56 52 53 58 66 69 73 82 72 53 46 35 28 32 43 49 41 41 44 43 41 42 47 41 40 67 89 90 94 99 99 97 92 97 100 100 101 99 100 97 95 89 86 92 94 93 91 93 95 92 92 95 92 90 89 93 95 94 95 95 98 94 77 58 39 31 30 30 29 27 28 28 31 33 30 29 29 29 28 29 29 35 43 39 34 29 29 33 37 49 50 59 64 43 33 30 27
46 39 42 50 57 64 71 77 69 49 35 31 32 32 36 39 36 37 38 39 36 37 39 43 62 82 89 89 94 100 101 99 97 99 100 100 99 100 98 93 90 81 77 88 93 94 95 92 92 93 92 83 75 73 77 78 74 76 78 73 73 68 59 52 37 30 29 29 29 27 28 28 30 29 27 29 28 29 29 28 33 47 64 59 44 29 26 34 34 41 47 50 51 36 27 25 26
40 44 50 58 64 62 70 70 59 48 38 37 36 32 34 31 33 35 35 37 33 33 35 45 67 81 86 88 95 101 100 100 99 99 100 100 100 98 92 87 82 75 77 87 94 95 94 91 88 78 60 44 37 37 40 39 40 51 54 42 39 37 38 37 29 28 28 27 27 27 28 28 29 28 27 29 27 28 28 29 36 53 73 77 61 37 23 35 42 36 33 36 41 34 23 21 24
36 50 55 59 70 63 61 60 49 46 42 42 35 30 32 27 33 34 34 42 39 37 41 48 54 66 82 84 93 99 97 101 99 100 101 98 96 90 86 85 83 85 88 91 94 97 93 86 72 47 28 22 22 27 34 43 47 48 41 29 26 27 26 26 26 27 27 27 27 27 27 27 27 27 27 29 28 27 27 28 32 38 45 48 46 36 21 32 46 32 21 22 25 24 19 19 19
29 38 44 47 63 59 50 49 44 44 40 37 31 26 29 28 35 36 37 48 52 44 44 56 50 62 86 80 87 97 95 101 100 99 97 92 89 84 84 86 89 94 94 95 94 86 71 60 56 53 47 38 31 36 47 56 50 37 30 27 26 26 25 26 26 26 26 27 27 27 27 27 27 27 28 27 27 27 27 28 30 30 28 28 27 27 20 24 34 26 19 18 16 17 16 16 15
26 29 39 39 47 49 44 42 41 44 37 31 29 28 31 34 37 40 46 55 61 47 40 55 47 58 85 77 83 96 97 101 97 94 89 84 82 80 80 80 87 93 94 97 87 70 62 66 77 80 74 63 52 46 44 46 41 33 31 30 29 27 26 26 26 26 27 27 27 28 27 28 28 27 28 27 28 27 27 28 29 28 27 27 24 23 21 18 21 20 18 16 14 15 13 13 12
26 27 42 41 40 43 38 35 38 43 36 28 27 29 34 41 44 48 55 56 57 47 41 57 56 65 80 77 86 95 97 97 90 85 79 76 76 75 77 77 80 82 84 86 78 74 81 89 91 81 75 76 70 60 51 48 44 39 35 31 30 29 28 27 28 28 27 27 28 28 28 28 28 28 29 28 29 29 28 28 28 27 25 25 24 22 21 18 17 17 16 15 13 13 12 12 12
20 24 39 41 45 41 28 32 40 40 31 27 26 28 33 38 44 52 57 53 52 52 50 60 67 74 78 84 96 98 97 93 84 78 75 76 77 78 82 82 81 78 77 74 74 84 91 93 91 80 74 74 72 70 64 56 51 45 41 37 36 34 33 32 32 32 30 31 30 30 29 29 29 30 31 31 31 30 28 28 26 25 24 23 23 22 21 20 19 18 18 17 15 14 13 12 13
21 37 43 43 51 33 20 30 36 34 28 30 29 27 31 33 35 44 53 52 51 51 52 58 65 72 82 95 101 99 98 93 83 76 76 79 81 84 87 89 88 87 86 82 81 88 93 95 96 86 74 70 68 67 62 56 52 48 47 46 44 42 41 41 40 40 39 38 36 34 33 33 34 35 34 33 31 29 27 26 25 24 25 24 24 24 23 23 22 22 22 20 20 18 17 17 17
26 46 44 43 46 23 17 25 24 29 30 35 36 30 35 37 34 41 53 55 52 51 51 56 61 66 77 88 94 96 95 90 83 75 77 84 86 88 92 94 94 94 95 94 92 94 98 98 99 90 71 63 61 60 57 55 54 52 53 51 49 47 48 50 49 47 45 42 39 37 38 38 38 37 34 32 29 29 28 27 28 27 27 27 27 28 27 27 27 26 26 25 24 23 22 21 20
22 35 36 36 36 21 20 22 21 29 30 37 42 36 40 42 38 46 53 55 57 58 56 55 56 58 62 72 82 87 87 84 81 77 79 85 88 90 93 94 93 93 93 95 95 96 100 99 97 83 62 55 56 56 56 56 56 55 53 50 48 49 51 55 54 51 45 39 36 35 36 35 35 35 34 33 33 33 33 33 33 32 32 32 31 31 31 31 31 30 29 28 27 27 25 24 23
18 32 40 32 25 24 24 24 26 30 30 37 42 39 45 45 42 47 49 56 63 61 59 57 54 53 55 63 71 76 78 77 74 71 71 73 79 84 86 87 84 81 77 80 85 88 91 88 80 65 54 54 54 55 57 56 56 53 49 47 47 49 52 54 53 50 44 37 34 33 34 35 36 36 37 37 37 37 37 36 36 35 35 35 34 34 33 33 33 32 32 31 31 30 29 28 27
17 25 31 24 20 26 26 24 29 32 32 37 42 44 49 47 47 51 51 59 65 60 59 56 51 49 51 58 64 70 71 68 65 60 57 57 64 71 73 72 69 65 61 63 66 68 69 65 59 53 52 52 52 54 54 52 51 48 45 45 47 50 51 51 50 46 42 38 35 36 37 38 38 37 38 38 38 38 37 37 36 36 35 35 35 34 34 34 34 33 33 33 33 32 32 31 30
21 25 24 22 21 25 26 26 31 31 33 41 46 46 47 48 52 55 53 57 58 56 57 53 50 47 46 51 57 63 64 61 59 56 52 51 53 56 58 59 58 57 55 56 54 54 54 52 52 51 51 50 50 51 48 47 45 43 44 47 49 50 48 47 45 42 40 39 38 39 38 38 38 37 37 37 37 36 36 36 35 35 35 34 35 34 34 34 34 34 34 34 33 33 33 33 32
24 31 28 27 26 29 31 32 33 31 38 47 46 44 46 49 53 55 52 53 53 54 54 51 50 48 45 45 48 52 55 56 55 54 55 54 53 51 52 52 53 53 53 54 51 52 52 52 53 52 51 51 49 49 48 47 44 45 47 49 50 47 45 43 41 41 40 40 39 39 38 37 37 37 37 36 36 35 35 35 34 34 33 33 33 33 33 33 34 33 33 34 33 34 33 33 33
29 32 28 30 33 37 37 37 37 36 44 42 39 47 50 49 51 53 52 51 51 52 52 51 50 48 46 44 44 46 47 49 50 50 52 52 53 52 51 51 51 53 52 51 50 51 52 53 56 53 53 52 51 52 52 50 49 50 49 48 47 43 42 41 40 40 39 39 38 38 38 38 38 37 38 37 37 36 36 35 34 34 33 32 32 31 32 32 32 32 32 33 33 33 33 33 33
26 28 29 30 35 39 38 39 40 41 43 35 39 53 51 47 50 53 53 51 51 50 50 50 49 47 47 46 45 46 45 46 46 46 47 47 48 48 48 49 49 49 47 48 49 50 51 55 56 53 53 52 52 53 52 51 49 47 46 44 42 41 41 40 40 40 39 40 39 39 40 39 39 39 38 38 37 37 36 35 34 34 33 32 32 31 31 30 30 30 30 30 31 31 31 32 31
25 27 30 30 33 35 34 38 38 40 42 34 43 56 49 45 51 56 53 50 50 48 49 48 47 48 47 47 47 47 46 47 47 46 46 46 47 45 45 47 46 46 46 47 49 49 52 55 54 52 51 51 50 50 48 47 45 44 43 42 41 42 41 41 41 41 42 42 41 42 41 40 40 39 38 36 35 34 34 33 32 31 31 30 30 29 29 29 28 28 28 28 28 28 28 29 29
26 27 30 32 31 33 36 39 36 37 42 36 39 50 49 47 54 58 51 50 51 46 48 48 47 49 48 48 48 47 47 47 47 46 46 47 46 45 45 47 46 46 48 48 48 49 51 51 50 48 48 47 47 47 45 44 44 43 43 43 43 43 43 43 43 43 43 42 42 41 40 39 38 36 35 33 32 30 29 28 27 26 26 26 25 25 25 25 25 25 26 26 25 26 25 25 25
24 26 33 35 35 40 37 35 32 33 40 36 33 45 57 60 57 55 50 51 51 46 48 48 49 50 49 50 48 48 48 47 48 47 46 47 46 46 46 47 47 47 48 47 47 48 48 48 47 47 46 46 46 46 45 45 45 45 45 45 44 44 44 43 43 43 42 41 39 37 36 34 32 31 29 27 26 25 24 23 22 22 21 21 21 21 21 21 22 22 22 23 23 23 23 23 23
26 28 34 38 46 51 40 35 33 32 40 35 34 54 69 67 55 49 51 51 49 48 49 48 49 50 49 49 48 48 49 48 48 47 47 46 46 47 46 46 47 47 46 46 48 48 47 48 47 47 47 47 47 46 46 47 46 46 46 45 45 45 44 43 42 41 38 36 34 31 30 28 26 24 23 22 22 20 20 19 19 19 19 19 19 18 19 19 19 19 19 20 20 20 21 21 21
40 33 38 56 58 48 40 46 43 33 40 36 42 71 77 65 55 48 50 50 47 48 50 50 49 49 49 49 48 48 49 49 48 48 48 47 47 47 46 47 47 47 47 47 49 48 48 49 49 48 48 48 48 48 48 48 48 47 47 46 45 45 43 42 39 36 33 30 27 26 24 23 22 21 20 19 19 19 18 18 18 17 17 17 17 16 17 17 17 17 17 17 17 18 18 18 18
63 48 45 63 60 46 43 50 52 42 38 34 42 70 78 67 59 50 48 49 46 48 51 52 50 49 50 49 49 49 49 50 49 49 49 49 49 49 48 48 48 49 49 50 49 49 50 49 50 50 50 50 49 49 49 49 49 48 46 45 42 41 39 36 33 30 27 25 23 22 21 20 20 19 19 18 17 17 16 16 16 15 16 15 15 15 14 14 15 15 14 14 14 14 15 15 15
71 71 56 52 52 52 49 46 53 50 44 44 48 66 78 71 58 50 48 48 46 49 53 53 52 51 51 50 50 49 50 51 51 52 52 52 52 51 51 50 51 51 51 51 51 51 52 51 51 51 51 51 51 51 50 50 49 47 44 40 37 34 31 29 27 25 23 22 21 20 19 19 18 18 17 16 15 15 14 14 13 13 13 12 12 12 11 12 12 12 12 11 11 11 12 12 12
53 71 65 53 55 55 52 50 52 54 56 63 64 71 78 70 58 52 49 48 46 49 53 55 55 54 53 51 50 49 50 52 53 54 53 53 53 52 53 52 52 53 52 53 52 52 53 52 52 52 52 52 52 52 51 50 47 43 38 34 31 28 26 25 23 22 21 20 19 18 18 16 16 15 14 13 12 12 12 11 11 10 10 10 10 9 9 10 10 10 10 9 9 9 8 9 10
43 58 59 53 63 64 66 63 56 59 65 69 69 73 77 70 61 54 50 50 47 48 52 54 55 55 55 54 52 52 52 53 53 54 54 54 54 54 54 54 54 54 54 54 54 54 53 54 54 53 54 53 53 52 51 49 45 40 35 29 26 23 22 22 21 21 19 17 16 15 14 13 12 12 11 10 10 9 9 8 8 8 8 8 8 8 8 8 8 8 8 8 8 7 8 7 8
53 64 66 59 66 68 69 65 59 63 70 76 75 73 76 72 66 59 53 53 49 49 51 54 55 56 57 56 54 54 53 54 54 55 56 56 55 55 55 54 55 54 55 55 54 55 55 55 55 54 55 54 54 54 53 51 46 39 32 24 19 17 18 19 18 17 15 14 13 11 11 10 10 9 9 8 7 7 7 7 7 7 7 7 7 8 8 8 8 8 8 9 8 7 8 7 7
63 70 73 68 70 65 60 62 62 65 74 80 77 75 75 72 70 62 55 56 55 54 54 54 55 56 57 57 56 55 54 54 56 57 57 57 57 57 56 55 55 55 55 56 55 56 56 56 56 56 56 57 57 57 56 53 45 35 27 19 14 14 15 15 14 12 11 10 9 9 8 8 7 7 7 6 6 7 6 7 7 7 7 7 8 8 9 10 9 10 11 10 9 9 8 8 8
62 66 69 70 73 66 58 64 67 66 75 79 75 78 77 73 73 63 58 62 60 55 55 55 53 54 56 56 56 55 55 56 58 59 58 59 58 57 57 56 56 57 56 57 57 57 57 57 58 58 59 60 61 61 57 48 39 31 24 17 13 13 13 12 11 10 9 8 7 7 7 6 7 6 6 7 7 7 7 8 7 8 8 8 9 9 10 11 11 12 14 12 10 9 8 8 8
62 65 74 74 71 69 63 67 73 69 75 81 78 81 78 75 76 67 62 64 58 53 52 53 52 53 54 54 55 55 56 59 59 58 57 58 58 57 57 57 57 58 58 58 59 58 59 59 59 61 62 63 61 56 49 41 36 33 29 22 15 14 13 10 10 9 8 8 7 7 7 7 7 7 7 7 7 8 7 8 8 8 9 9 9 10 10 11 13 14 15 14 11 9 9 9 9
58 62 72 72 66 72 69 65 73 70 71 79 81 82 79 76 77 72 64 59 57 54 52 52 52 52 52 50 52 53 55 57 56 56 56 56 58 58 56 56 58 59 59 60 60 60 61 60 62 63 60 54 48 43 40 39 38 39 38 31 21 15 12 9 9 9 8 8 8 8 8 8 8 8 8 8 8 8 8 8 9 9 9 10 11 12 12 13 14 16 16 15 14 12 10 9 11
60 61 67 67 62 70 71 66 71 70 71 76 74 73 73 74 77 75 67 62 62 60 57 56 54 54 53 51 51 51 52 52 52 52 53 54 55 55 54 56 59 59 59 60 60 62 61 62 64 59 49 41 39 39 40 42 43 44 44 38 29 21 14 11 9 9 8 8 8 8 8 8 9 8 8 9 8 8 9 9 9 10 11 13 16 16 18 20 19 21 20 18 18 16 12 11 12
53 48 57 59 57 66 70 72 74 71 73 72 67 63 65 76 83 75 69 72 71 66 64 60 56 55 56 55 54 53 52 51 52 51 50 52 51 53 54 56 59 58 58 60 62 63 62 64 61 48 42 44 44 44 45 47 48 48 47 43 37 27 19 14 11 10 9 9 9 8 9 8 8 9 8 9 8 8 9 9 10 11 11 14 20 22 24 26 25 25 25 22 20 18 16 15 14
41 36 57 62 63 69 69 73 75 73 72 69 67 60 61 74 77 71 71 76 75 70 70 66 59 58 56 56 56 54 55 53 53 53 53 54 53 54 54 54 56 56 57 61 63 63 63 63 53 43 47 54 54 53 52 52 52 51 49 47 43 34 25 18 13 13 11 10 9 8 9 8 8 9 8 9 9 9 9 10 11 11 11 14 20 24 27 29 28 28 27 24 21 19 18 18 17
31 39 66 68 63 64 68 73 74 75 71 71 72 62 65 74 70 74 77 77 79 74 73 70 64 61 56 55 55 54 55 53 53 54 53 55 54 54 53 51 53 54 58 63 63 61 61 56 47 46 55 61 61 60 57 55 54 52 50 48 46 40 32 23 16 15 14 12 10 8 8 8 8 8 8 9 9 9 10 11 12 12 12 15 19 24 27 29 29 28 27 24 22 21 20 21 21
33 52 68 66 64 65 69 70 72 74 66 68 75 68 75 79 70 83 86 77 80 76 71 70 66 64 59 55 55 53 53 52 51 52 51 52 52 50 49 49 51 55 60 61 57 54 52 48 46 52 60 64 65 62 59 58 55 53 51 48 48 45 39 31 22 19 18 15 11 8 8 8 8 8 8 9 9 10 11 11 12 13 13 16 19 22 25 28 28 27 26 24 23 22 22 23 24
41 59 66 65 69 73 71 69 71 71 64 63 68 66 71 71 68 86 91 82 79 69 63 65 62 64 61 56 54 52 52 52 51 52 50 49 49 48 48 49 52 56 60 58 52 49 48 48 51 58 64 68 67 63 60 59 56 53 51 49 49 48 45 39 31 26 23 18 13 9 8 8 8 9 9 10 11 11 12 12 13 13 14 17 20 21 23 25 27 27 27 27 27 25 24 25 26
44 58 59 45 45 58 70 78 71 67 73 68 62 62 58 56 62 76 81 77 72 63 60 62 60 61 61 56 53 51 52 52 51 52 50 50 50 50 53 54 55 58 61 61 55 52 53 55 59 64 69 72 69 64 62 62 59 55 52 51 50 49 50 47 41 35 29 23 17 11 9 9 8 9 10 10 11 12 13 14 14 14 15 17 19 21 23 24 26 28 29 29 29 28 27 27 28
41 45 40 20 20 39 54 67 65 71 82 64 56 62 54 53 54 53 61 68 68 65 61 60 61 61 58 54 50 48 49 50 50 52 50 51 52 53 55 55 56 60 63 62 58 57 58 60 64 68 72 74 71 66 66 65 61 55 53 52 51 51 53 54 49 44 37 30 23 14 9 9 9 10 10 11 12 14 14 15 15 15 16 17 19 22 24 26 28 30 30 31 31 30 31 30 31
38 42 44 35 36 40 45 60 63 69 71 48 45 50 42 48 42 31 45 57 64 66 59 54 55 53 48 44 42 42 46 48 49 51 50 52 52 52 53 52 53 57 59 59 58 60 62 64 68 71 73 74 72 68 67 66 60 54 52 52 51 53 57 58 55 48 41 35 27 17 10 10 10 11 12 13 14 16 17 17 16 17 17 19 20 23 26 27 29 30 30 31 32 33 34 33 33
36 43 44 39 41 31 34 55 47 38 43 34 36 41 39 42 33 30 37 39 52 59 54 52 48 44 39 34 34 37 42 45 47 49 50 50 51 50 50 50 52 54 54 57 60 62 65 68 71 73 74 73 70 67 66 63 57 52 53 53 52 56 60 61 58 50 44 40 31 17 10 10 11 12 13 14 17 19 20 20 19 19 20 22 24 26 28 28 29 31 31 32 34 35 37 35 35
45 47 35 35 49 32 27 49 40 35 51 44 30 36 50 44 35 50 54 46 58 57 53 55 48 46 45 39 39 38 39 42 43 46 47 48 49 48 49 50 51 53 54 57 61 64 68 70 73 76 73 69 66 66 65 60 55 53 54 54 55 59 63 63 58 51 47 43 31 16 10 11 12 13 15 16 19 21 21 22 21 22 23 26 28 28 29 30 30 32 33 34 36 38 38 38 37
35 44 31 30 49 48 45 57 53 53 66 69 53 44 54 43 33 64 76 66 68 60 57 61 51 51 52 48 47 42 40 42 41 45 46 46 48 48 50 51 51 53 55 58 62 65 70 72 75 75 68 64 65 65 62 56 54 55 55 55 58 62 64 63 58 52 49 42 27 13 10 13 14 15 17 18 21 22 22 22 21 22 26 29 30 29 29 30 32 34 36 36 38 41 40 39 39
22 29 27 30 43 56 58 49 53 62 57 60 57 43 45 31 21 59 84 74 70 68 68 65 57 57 56 52 48 42 43 42 41 45 44 45 47 47 49 49 50 53 54 58 62 65 70 73 74 69 62 61 61 60 58 55 55 56 56 57 61 64 65 63 57 52 48 36 19 11 12 14 16 18 19 19 21 22 22 22 22 23 26 29 30 30 30 31 34 37 39 39 41 43 42 40 41
27 19 27 40 42 52 54 38 49 66 53 47 47 42 44 31 21 49 66 62 65 69 72 70 65 65 61 53 46 40 40 40 41 44 43 44 46 46 48 48 49 53 54 59 63 66 72 73 67 60 55 54 54 55 56 55 56 57 58 60 63 65 65 61 56 52 42 26 14 12 14 16 17 18 19 20 22 22 23 23 23 25 27 30 30 31 32 33 37 41 42 42 43 44 43 43 43
31 25 28 37 37 43 47 40 41 44 42 52 59 58 51 39 39 42 36 40 49 53 65 72 69 68 64 54 42 37 38 40 43 43 40 42 43 43 46 47 49 52 56 61 65 69 72 66 57 50 48 49 51 55 55 55 57 58 60 63 64 66 63 59 55 46 32 17 11 13 15 16 18 19 19 21 23 24 24 24 25 27 29 32 33 34 34 35 39 45 45 44 44 44 45 45 46
33 32 31 38 49 54 48 44 48 42 43 59 67 62 43 32 46 41 22 27 35 39 55 67 66 61 53 44 34 31 33 34 37 37 36 38 37 39 41 44 48 51 57 63 65 67 63 53 47 44 45 47 49 51 52 54 58 60 62 64 65 65 62 57 50 36 21 13 12 15 16 17 19 19 20 22 24 25 26 26 27 31 34 37 39 37 36 38 43 48 48 47 48 48 49 49 49
39 35 36 38 40 46 40 42 59 58 52 63 66 56 33 21 35 35 22 24 31 37 44 50 54 41 27 26 24 23 26 27 29 31 33 34 33 36 38 42 48 52 60 64 61 56 50 44 43 43 44 45 47 50 53 56 60 62 64 66 65 64 60 53 40 23 14 12 14 16 17 18 20 20 22 23 25 27 28 30 34 38 42 44 45 41 38 41 46 50 50 51 53 54 53 52 51
48 39 44 43 35 40 32 34 63 68 60 69 67 51 30 20 26 26 20 22 27 33 34 35 35 22 14 18 17 19 22 23 26 29 30 32 32 34 38 41 48 54 59 59 52 47 44 43 44 43 45 47 49 53 56 59 62 63 65 66 65 63 55 43 26 15 12 13 16 17 18 20 21 22 24 24 25 27 29 35 42 47 50 50 48 44 41 44 49 51 52 53 57 58 55 53 53
Wind_Speed
5 4 2 3 4 5 5 5 2 2 2 0 2 1 2 1 1 3 3 1 2 1 2 3 3 6 7 9 12 14 14 7 1 2 4 10 18 20 14 12 12 12 10 9 9 8 8 9 9 9 10 10 10 9 9 8 8 7 8 10 10 10 11 11 11 11 12 12 12 12 13 12 13 12 11 10 11 11 11 10 11 9 10 10 9 11 11 11 12 13 13 11 13 15 15 13 11
3 4 4 4 4 4 4 3 1 1 2 1 2 2 2 1 1 4 5 4 4 6 10 15 17 16 14 14 13 12 16 13 8 11 16 18 19 16 13 11 11 11 9 10 9 8 9 10 10 10 11 11 9 9 9 8 8 9 10 10 10 10 10 10 11 11 11 12 11 12 13 13 13 12 12 12 12 13 12 11 12 12 11 10 9 10 9 9 12 13 12 11 12 13 13 12 10
3 4 4 6 6 3 2 2 1 1 1 2 3 2 0 1 2 5 5 5 10 14 14 14 13 12 10 11 11 8 8 11 13 19 22 18 18 17 13 11 10 9 8 9 6 6 10 10 10 11 11 9 7 7 7 9 10 11 12 11 10 11 10 10 11 12 11 12 12 12 13 14 14 14 14 15 15 14 14 13 13 14 14 14 13 12 10 9 11 11 10 12 13 14 14 11 9
1 1 2 4 6 3 2 2 1 2 2 2 2 3 1 2 5 5 1 6 12 14 10 8 8 11 14 11 7 7 8 8 10 18 20 16 17 18 14 11 9 8 7 6 5 7 10 10 11 10 9 8 7 8 8 10 10 10 12 11 11 11 10 9 10 11 12 14 14 14 14 14 15 15 14 15 15 14 14 14 14 14 14 14 13 13 13 11 10 10 10 11 14 15 16 12 8
1 3 3 4 5 2 2 2 1 2 2 2 1 3 3 4 5 3 3 7 10 10 6 7 6 10 17 14 6 4 6 8 8 14 18 16 16 17 14 11 9 9 8 7 6 9 11 12 12 9 8 7 8 10 10 10 9 9 10 10 10 10 10 9 10 12 14 15 15 15 15 15 15 14 14 14 14 15 15 15 15 14 15 14 14 14 14 13 11 11 11 12 14 15 16 13 8
5 5 4 4 4 2 2 1 1 1 4 4 2 5 4 5 7 5 8 9 7 6 4 7 9 12 15 13 12 8 3 6 7 11 16 18 16 15 13 11 10 10 9 8 9 11 13 13 12 8 6 5 8 10 11 11 9 10 10 9 8 9 10 11 13 14 15 15 14 15 15 15 15 14 13 13 14 14 15 15 15 15 15 15 15 14 14 14 13 13 13 13 14 15 15 14 10
7 6 4 4 4 2 2 2 2 2 3 4 3 5 5 6 9 10 8 6 6 4 5 11 16 16 9 4 9 11 4 6 9 11 14 18 16 13 12 11 10 10 10 11 14 14 13 13 11 8 8 9 11 10 8 9 8 10 10 9 9 11 13 13 13 13 13 13 13 13 13 13 13 12 12 12 13 13 14 15 15 15 15 15 15 15 15 15 15 14 14 14 14 14 14 14 12
7 5 4 3 2 2 3 2 3 2 2 2 3 5 7 7 13 11 4 3 4 4 8 13 15 12 7 7 9 9 6 6 9 11 14 18 16 14 13 12 10 10 12 15 17 15 13 13 11 9 10 10 9 7 7 8 9 10 10 11 12 12 13 12 12 11 11 10 11 11 11 11 11 11 11 12 13 13 14 15 15 15 15 15 15 15 16 15 15 14 14 14 14 14 13 13 13
7 5 3 3 1 1 1 2 2 2 2 1 4 7 4 6 14 11 6 6 7 9 8 5 6 8 9 17 14 10 13 10 10 14 16 18 16 17 15 12 11 9 12 16 17 15 13 11 10 9 9 10 9 9 10 10 10 10 11 12 12 12 12 11 10 9 9 9 9 9 10 10 11 11 11 11 12 13 14 14 15 16 16 16 16 16 16 16 15 15 14 14 14 13 13 13 14
7 4 3 2 1 2 1 2 1 2 2 1 5 12 9 9 14 12 9 8 9 14 14 10 12 15 14 16 12 12 17 14 13 17 18 18 17 17 14 13 12 9 12 17 17 15 13 11 10 9 9 10 10 10 10 10 9 9 11 11 11 11 10 9 7 7 7 8 9 9 10 10 10 10 11 11 11 12 13 14 15 15 16 16 16 16 16 16 15 15 15 14 14 14 13 13 13
4 3 3 2 2 2 2 3 3 3 3 2 8 18 13 12 16 13 11 10 9 11 11 12 16 21 19 13 9 12 17 14 14 19 19 18 17 15 13 13 12 10 13 16 15 14 14 12 11 9 8 7 7 9 9 9 7 6 8 8 8 8 7 7 6 7 8 9 9 10 11 11 11 11 11 11 11 12 12 13 14 15 15 15 16 16 16 16 15 14 14 14 14 14 13 13 13
3 0 3 2 2 3 3 3 3 3 5 5 7 15 14 18 17 9 10 11 9 10 10 8 14 19 16 9 11 14 16 14 13 19 18 16 15 14 14 13 12 11 12 14 14 14 12 10 7 6 5 6 7 8 7 7 7 6 7 5 4 5 6 7 7 9 10 10 11 11 12 12 12 13 13 13 13 13 13 14 15 15 15 15 16 16 16 15 15 14 14 14 14 14 14 13 12
5 2 4 2 3 3 2 3 3 1 5 5 6 12 16 20 15 6 9 15 15 11 11 9 15 14 12 9 14 18 17 16 15 18 17 16 16 15 15 15 15 14 14 14 13 11 8 6 6 6 7 9 9 10 10 9 8 6 5 3 4 6 7 8 8 9 10 11 12 12 13 13 14 15 15 15 15 15 15 16 16 16 16 16 16 17 16 15 15 15 14 14 15 15 15 14 13
8 3 4 2 1 2 3 3 2 3 3 3 6 13 20 17 14 15 14 14 16 10 9 11 13 13 15 12 13 20 20 19 18 18 19 18 18 17 17 17 16 16 15 13 12 10 8 8 7 8 9 9 10 11 11 8 5 3 4 4 5 6 7 8 8 9 10 12 12 13 14 14 15 15 16 16 17 17 17 17 17 18 18 18 18 18 17 15 14 15 15 15 16 16 15 15 14
9 3 3 1 2 0 1 2 2 5 2 2 7 17 27 17 12 23 19 9 11 7 8 9 8 8 13 11 12 22 23 22 21 20 20 20 20 19 18 17 16 15 14 13 12 11 10 9 8 8 8 9 8 7 6 4 2 3 5 5 6 7 8 8 8 9 10 11 12 13 14 14 15 16 16 17 17 18 18 18 18 18 19 19 19 19 18 17 16 16 17 17 17 16 15 15 14
9 3 4 1 1 1 1 1 2 5 1 2 7 13 23 20 20 27 19 14 18 14 11 12 10 9 15 18 21 26 25 23 22 20 20 20 20 20 20 18 17 16 15 14 12 11 10 9 8 8 8 7 5 3 2 1 3 5 6 6 7 7 8 9 9 9 10 11 11 12 13 14 15 16 16 17 18 18 19 19 19 19 19 19 19 19 19 19 19 19 19 19 18 17 16 15 15
7 2 3 0 1 2 1 2 3 6 4 2 4 7 14 13 22 28 25 28 27 25 25 24 22 22 24 25 27 28 26 25 24 21 20 21 20 20 20 19 18 18 16 15 14 12 10 9 8 8 5 3 2 1 1 2 4 5 6 6 7 8 9 10 10 11 11 11 11 12 12 13 14 15 16 17 18 18 19 19 19 20 19 19 20 20 19 20 20 20 20 20 19 18 17 16 15
4 2 3 2 2 2 2 4 5 7 4 3 7 12 15 9 10 15 21 27 26 29 32 29 29 29 29 28 29 28 27 27 23 20 20 20 20 19 20 18 17 17 16 15 14 12 10 9 8 6 4 3 2 1 1 3 4 5 6 7 8 9 10 11 11 12 12 11 11 11 12 13 13 14 16 16 18 18 19 19 19 19 20 20 20 20 20 20 21 21 21 21 20 19 18 17 17
3 3 2 3 4 2 4 4 7 9 11 11 15 17 17 9 6 10 11 16 21 24 23 26 31 28 28 27 27 27 26 26 21 19 19 20 20 19 19 17 16 15 15 14 13 12 10 9 8 5 4 4 3 1 1 2 3 5 6 8 9 9 10 11 11 11 11 11 10 10 11 12 12 14 15 16 17 17 18 18 19 19 20 20 20 21 21 21 22 22 22 22 22 22 21 20 19
2 3 2 3 6 4 9 7 13 17 22 19 16 20 24 15 9 14 16 17 20 16 13 18 24 23 26 25 25 26 25 23 20 19 19 20 19 18 18 16 15 14 14 13 12 11 10 9 7 5 4 5 3 0 1 3 4 5 6 7 9 10 10 10 11 11 11 10 10 10 10 11 12 13 14 15 16 16 17 18 19 20 20 21 21 22 22 23 23 23 23 23 23 23 23 23 22
1 3 2 4 7 6 10 15 21 21 26 24 17 21 23 18 15 13 15 15 13 12 12 13 18 22 25 25 25 24 23 22 20 19 19 20 19 19 18 17 16 15 15 14 12 12 11 9 7 6 4 3 2 2 4 5 6 7 8 9 9 10 10 10 11 11 10 10 10 10 11 12 13 14 15 16 17 18 19 20 20 21 22 22 22 23 23 24 24 24 24 24 24 24 25 25 24
5 5 4 4 7 7 8 15 20 20 25 25 19 17 13 16 21 15 16 13 4 7 11 14 19 22 23 24 25 23 23 22 21 22 21 22 21 21 20 20 19 18 17 15 14 13 11 9 8 6 4 4 3 4 6 7 8 9 9 9 9 9 10 10 10 11 10 11 11 12 12 14 15 16 17 18 20 20 21 22 22 23 23 24 24 24 25 25 26 26 26 26 26 26 26 26 26
5 6 11 10 10 12 10 14 17 19 26 21 16 17 18 23 22 21 27 19 9 12 13 18 20 21 22 22 23 23 23 23 23 23 22 23 23 22 22 20 20 19 17 15 15 14 12 10 7 6 5 5 4 5 6 7 8 9 8 8 8 9 9 10 10 11 11 12 13 14 15 16 16 17 18 19 20 21 22 23 23 24 25 25 26 26 27 27 28 28 29 29 29 28 28 28 28
8 4 11 15 19 20 17 21 22 26 30 24 23 23 19 22 16 16 26 19 15 18 17 20 21 21 21 21 21 22 22 22 22 22 22 22 21 21 20 19 18 16 15 14 13 11 10 9 7 6 5 4 4 4 6 7 8 8 8 8 9 10 10 11 12 12 13 14 15 16 16 17 18 19 20 20 21 22 23 24 24 25 26 26 27 28 28 28 29 29 30 30 31 31 31 30 30
8 5 9 15 22 25 27 31 32 35 34 31 34 28 23 27 23 19 19 17 18 19 19 20 21 21 20 20 21 21 21 21 21 21 20 20 19 19 18 17 16 14 12 11 11 10 9 8 6 5 4 4 4 4 5 6 6 7 7 9 9 10 11 12 12 13 14 15 17 18 19 20 21 22 23 23 24 25 26 26 27 27 28 28 28 29 30 30 30 31 31 32 32 33 33 33 33
7 11 14 19 21 23 30 31 29 31 28 31 32 21 20 22 18 16 12 15 18 18 20 19 19 21 20 21 21 21 21 21 20 20 19 18 17 16 16 14 13 12 11 10 10 9 8 7 5 4 3 3 3 4 5 6 6 6 7 8 9 10 11 12 14 15 16 18 19 20 22 23 24 25 26 27 28 28 29 29 29 30 30 31 31 31 32 32 32 33 33 33 34 34 34 35 35
21 25 21 21 20 16 23 27 26 24 18 26 27 11 11 9 5 7 7 13 17 18 20 19 19 20 21 22 21 21 21 20 19 18 18 17 15 14 14 13 12 11 10 10 9 8 7 6 5 4 3 3 3 4 4 5 5 6 7 9 10 11 13 15 16 18 19 20 22 24 25 26 28 29 29 30 31 31 32 32 32 32 32 32 33 33 33 34 34 34 35 35 36 36 36 36 36
33 32 22 17 21 16 18 21 19 16 14 26 30 15 15 12 6 6 9 13 15 18 19 18 19 20 21 21 20 20 19 19 18 16 16 16 15 14 13 13 12 11 10 9 8 7 6 5 5 4 3 2 2 2 3 4 6 7 9 11 12 14 16 17 19 21 22 24 25 26 28 29 30 31 32 32 33 33 33 34 34 34 34 34 34 34 34 35 35 35 36 36 37 37 37 37 38
28 25 16 7 13 10 7 6 5 6 8 12 16 11 10 9 5 8 11 14 14 16 18 17 19 20 20 19 19 19 18 18 17 16 16 15 15 14 13 12 11 10 10 9 7 7 6 5 4 3 3 2 2 3 4 6 8 10 12 14 16 18 19 21 22 24 25 26 28 28 30 31 31 32 33 33 33 34 34 34 34 34 34 34 34 34 35 35 36 36 36 37 37 38 38 38 39
12 11 10 5 4 5 8 4 1 4 2 6 2 3 3 3 4 10 12 15 15 15 16 17 18 18 19 18 18 18 17 17 17 16 16 15 14 13 12 12 11 10 9 8 8 7 6 5 5 4 3 2 3 5 7 9 11 14 16 18 20 21 23 24 25 27 27 28 29 30 31 31 31 32 32 32 32 33 33 33 33 33 34 34 34 34 34 35 35 36 36 37 38 38 39 39 39
5 4 4 3 3 1 6 10 4 3 5 4 5 3 2 5 6 10 11 12 12 12 15 16 17 17 17 17 18 18 18 17 16 16 15 14 13 13 12 12 11 10 9 9 8 7 6 5 4 4 3 4 6 8 10 12 14 16 19 21 23 24 26 27 28 29 29 30 30 31 31 31 30 31 31 31 31 31 31 31 31 32 32 32 32 33 33 34 35 35 36 37 37 37 38 38 39
4 4 1 2 4 3 2 12 11 1 3 9 5 3 1 5 8 11 11 11 10 11 15 16 16 17 16 17 17 17 17 16 16 15 15 14 13 13 12 12 11 10 10 9 9 8 6 5 4 4 5 7 8 11 13 15 17 19 22 23 25 27 28 29 30 30 30 30 31 31 31 31 30 29 30 30 30 29 29 29 30 30 31 31 31 31 32 33 33 34 34 34 36 37 37 37 37
4 2 3 0 5 2 1 7 16 8 1 9 8 4 3 4 9 12 11 13 12 13 16 15 16 16 16 16 16 16 16 16 17 16 16 15 14 14 13 12 12 11 10 10 9 8 7 6 6 6 8 9 11 13 15 18 20 22 24 25 27 28 29 30 30 30 29 29 29 29 29 29 29 29 29 29 29 29 29 29 29 29 30 30 30 30 30 31 32 33 32 32 33 35 35 36 37
3 2 3 1 3 3 0 2 14 15 4 5 8 5 3 2 11 12 11 13 13 15 17 16 16 16 15 16 16 16 17 17 18 17 17 16 15 15 14 13 13 12 11 10 9 9 8 8 8 9 10 12 14 16 18 20 22 24 25 26 27 28 29 29 29 29 28 28 28 28 28 29 29 28 28 28 29 28 29 29 29 29 30 29 29 29 29 29 30 30 31 30 30 31 33 33 35
2 1 3 2 3 3 3 1 7 12 8 6 6 5 3 3 8 11 13 13 13 15 16 16 16 16 16 17 17 17 18 19 18 18 17 17 16 15 15 14 14 13 12 12 11 10 10 10 10 11 12 14 15 17 19 21 23 25 26 27 28 29 29 29 29 29 28 28 28 28 28 28 28 28 28 28 28 29 29 29 30 30 30 30 29 29 29 29 29 29 30 30 29 29 30 31 33
5 3 4 4 3 2 1 1 1 6 8 5 3 4 5 5 5 9 13 14 14 14 15 16 16 16 17 17 18 19 20 20 19 19 18 18 17 17 16 16 15 15 14 14 13 13 12 12 12 13 14 15 17 18 20 23 25 26 28 28 29 28 27 27 27 27 27 27 27 27 27 28 28 28 28 28 28 29 30 30 30 30 31 31 31 31 30 30 30 30 30 30 31 30 29 28 30
6 5 5 5 5 2 0 2 3 3 4 3 3 3 5 6 5 9 13 13 12 14 16 17 17 18 19 20 21 21 21 21 20 20 20 19 19 19 18 18 17 17 17 16 15 15 15 14 15 15 16 17 18 20 23 25 26 27 28 29 28 26 26 25 25 25 25 25 25 25 25 26 27 27 28 28 28 29 30 30 31 31 31 32 32 32 32 32 32 31 30 30 30 31 30 29 29
7 7 6 5 3 2 1 2 4 5 3 1 1 3 4 5 5 9 13 12 13 17 18 18 20 20 21 22 22 23 22 21 22 22 22 22 22 21 21 20 20 19 18 18 17 17 17 17 17 17 18 20 22 23 25 26 26 27 27 28 27 25 25 25 24 24 24 24 24 24 24 25 26 27 27 28 28 29 30 30 31 31 32 32 33 33 33 34 33 33 32 31 31 31 30 28 27
6 5 5 4 2 2 1 1 4 6 2 2 2 2 4 5 5 9 15 15 15 19 20 19 21 22 24 24 24 25 24 24 25 25 25 24 24 23 23 23 22 21 20 19 19 18 18 19 19 19 21 22 24 24 25 25 25 25 26 27 26 25 25 25 24 24 24 23 23 24 24 25 26 26 26 27 28 29 29 30 31 32 32 33 33 34 34 34 34 34 33 32 32 32 30 27 24
4 4 4 2 2 2 1 1 3 5 3 3 4 1 3 4 4 7 16 20 17 18 20 20 20 22 24 24 25 26 27 28 28 28 27 26 26 26 26 25 24 23 22 21 21 20 20 20 21 21 22 23 23 23 24 24 25 25 26 25 24 24 24 24 24 23 23 23 23 23 24 25 25 26 26 27 28 28 29 29 30 31 32 32 33 34 34 34 34 34 33 33 33 32 31 28 23
3 3 5 4 4 3 2 2 2 3 5 3 5 2 4 4 5 7 11 18 18 18 20 23 24 24 23 23 25 28 29 30 30 29 29 28 28 28 27 26 25 25 24 23 22 22 22 22 22 21 21 22 22 23 23 24 25 25 25 25 24 24 24 25 25 24 24 24 25 25 25 26 26 26 27 27 28 28 28 29 30 31 31 31 32 33 33 33 33 33 33 32 31 31 31 29 24
3 1 4 7 7 4 4 4 3 4 3 1 4 2 4 3 6 9 6 8 14 16 19 25 28 27 27 27 28 29 31 31 31 30 29 29 28 28 27 27 27 27 26 24 23 23 24 23 21 20 21 22 22 23 23 24 25 25 26 25 25 26 27 27 27 27 27 27 27 26 26 27 27 27 27 27 28 28 29 29 30 31 31 31 31 32 32 31 32 32 32 32 31 29 28 29 25
2 1 3 6 7 7 8 6 3 2 2 2 2 2 3 3 5 10 6 6 10 11 15 24 29 29 31 32 32 31 32 34 34 33 31 31 31 30 29 29 29 28 25 24 24 25 24 22 20 20 22 23 23 24 24 25 26 26 27 27 26 27 28 29 29 29 29 29 29 28 28 28 27 27 27 27 27 27 28 29 30 31 31 31 30 31 32 31 32 32 31 31 30 28 27 27 26
1 1 4 7 7 8 9 6 3 2 2 2 1 2 1 4 5 5 4 7 10 10 13 20 27 32 34 36 35 34 34 34 35 35 34 34 33 32 30 29 28 26 24 24 25 25 23 21 21 23 25 24 24 25 25 25 26 27 27 28 27 28 29 30 30 31 31 32 32 30 30 29 29 28 27 27 26 26 26 27 29 30 31 31 30 31 31 31 32 31 31 31 29 28 26 25 24
2 1 1 5 6 7 7 5 2 1 2 1 3 2 1 5 5 3 1 6 10 14 15 18 27 34 36 39 39 37 36 35 35 35 34 34 33 31 29 27 26 24 24 25 24 23 22 22 24 26 26 26 26 25 26 26 27 28 28 29 28 28 29 30 31 32 32 33 33 32 31 30 29 28 27 27 26 26 26 26 27 29 30 30 30 31 31 31 31 31 30 30 28 28 25 24 23
2 3 3 4 5 4 4 3 2 2 2 4 6 6 2 5 4 1 1 4 10 14 13 17 28 35 38 41 41 40 38 37 36 36 34 33 31 29 27 26 25 25 24 25 24 23 24 25 26 27 28 27 27 26 26 27 28 29 29 29 29 29 29 30 31 32 33 34 35 35 33 32 30 29 28 27 26 25 25 26 27 28 29 29 29 30 30 30 31 30 30 28 28 28 26 24 23
3 5 5 6 5 4 3 2 3 3 3 6 7 10 6 3 5 3 4 6 9 11 9 12 22 31 37 41 42 41 40 38 38 37 36 34 32 31 30 30 28 27 27 27 27 27 27 28 28 29 29 29 28 28 27 28 28 29 29 29 29 29 29 30 31 32 34 35 37 37 35 34 33 31 30 29 28 27 26 26 26 27 28 29 29 30 30 30 30 30 29 28 28 28 26 25 24
4 3 4 4 3 3 3 4 3 1 5 6 3 7 6 3 7 5 7 9 7 8 9 10 16 27 37 41 42 41 40 39 38 38 37 35 35 34 34 34 31 30 31 31 30 30 29 29 30 30 30 30 30 29 28 28 28 29 30 30 29 29 29 30 31 32 34 35 37 38 36 35 33 32 31 30 29 28 28 27 27 27 28 29 30 30 30 30 30 29 29 29 28 28 27 26 25
5 4 4 3 2 3 1 3 0 3 6 3 1 2 3 6 9 9 11 12 11 13 15 14 17 25 33 37 40 40 39 39 39 38 38 37 36 36 35 34 33 33 33 32 32 31 31 31 31 32 32 31 31 30 29 29 29 30 31 31 30 30 29 30 31 32 34 35 38 38 36 34 33 32 30 29 29 28 28 28 28 28 28 29 30 30 30 30 30 30 29 29 28 28 27 26 25
4 3 3 2 2 3 3 4 2 4 5 3 1 0 3 5 7 10 12 12 13 17 20 21 19 20 24 27 32 36 37 38 39 38 38 37 37 35 34 34 33 33 33 33 33 33 33 33 33 34 33 31 31 30 29 29 30 31 31 31 31 29 29 30 32 33 34 35 37 37 36 34 33 31 30 29 29 28 29 29 29 29 28 28 28 29 29 30 30 30 30 29 29 28 27 26 26
2 2 3 2 3 3 3 4 3 4 4 4 3 1 3 3 3 6 8 9 10 13 18 21 21 20 19 20 25 31 35 37 38 38 38 37 36 35 35 34 34 34 34 34 34 35 35 35 35 35 33 32 31 31 30 30 31 31 31 31 30 29 30 31 32 33 34 35 37 37 35 33 32 30 29 28 28 29 30 30 30 30 28 27 27 28 29 29 30 30 30 29 29 28 26 26 26
1 2 3 1 3 3 1 3 5 1 3 3 2 3 5 4 5 4 4 8 9 10 13 17 21 22 19 20 24 29 33 36 37 38 38 37 36 36 36 36 36 35 35 35 36 36 37 36 35 35 33 32 31 31 31 31 31 31 31 31 30 29 30 32 33 33 34 35 36 35 34 32 30 29 28 28 28 29 30 30 30 30 28 27 27 28 28 29 29 30 29 29 28 26 25 26 26
1 1 1 2 3 5 3 2 0 3 1 3 2 5 5 4 5 4 3 6 8 7 10 15 21 21 19 24 28 30 33 35 36 37 37 36 36 36 36 37 37 36 36 36 36 36 37 36 34 34 33 31 31 31 32 31 32 31 31 30 30 30 31 32 33 34 34 35 35 34 32 31 30 29 29 28 29 30 30 30 30 29 28 28 28 28 29 29 29 29 28 28 27 25 25 26 26
1 0 3 2 1 4 3 1 4 3 2 4 2 6 6 2 4 5 5 5 8 8 10 14 18 19 21 29 32 33 34 35 36 36 36 36 36 36 37 37 37 37 36 36 35 35 35 34 33 33 32 31 31 31 31 32 32 31 31 30 30 31 32 33 34 33 33 34 34 33 31 31 30 29 29 29 30 30 30 30 29 29 28 28 28 29 29 29 29 28 27 27 26 26 26 27 27
1 3 3 2 1 1 1 1 1 1 2 4 5 7 5 4 5 5 4 7 9 9 9 10 15 21 27 34 36 36 36 36 37 37 36 37 36 36 37 37 37 37 37 36 35 34 34 33 33 32 32 31 31 31 32 32 32 31 30 30 31 32 33 33 33 32 33 34 33 32 31 31 30 29 30 30 30 31 30 30 29 29 28 28 29 30 30 30 29 28 27 27 27 26 27 28 28
2 1 1 2 2 4 2 1 3 2 3 3 4 6 5 7 7 6 9 11 10 10 8 9 18 27 32 35 36 36 36 37 38 38 37 36 35 35 36 36 36 36 36 35 33 33 33 33 33 32 32 32 32 32 33 32 32 31 30 31 32 32 33 32 32 32 34 33 32 31 31 31 30 30 30 30 31 31 31 30 29 28 29 29 30 31 31 30 29 28 27 28 28 28 29 30 30
1 0 1 1 1 1 1 0 2 3 2 3 2 5 9 7 5 8 11 10 10 11 9 10 19 28 31 32 33 34 34 35 36 36 35 34 34 34 34 35 36 35 35 34 33 33 33 33 33 32 32 33 33 33 32 31 30 30 31 32 32 32 32 31 32 33 33 32 31 31 31 31 30 30 31 31 31 31 31 30 29 29 29 30 31 32 31 30 28 28 28 29 30 30 31 32 32
4 3 4 3 2 2 1 3 2 2 3 4 3 4 11 6 4 8 11 8 9 12 11 12 20 27 28 28 29 30 31 32 33 33 33 33 33 33 33 34 35 36 36 35 34 33 33 33 33 33 33 33 32 32 31 30 29 30 31 32 32 31 31 31 32 32 32 31 31 31 30 30 30 30 30 31 32 32 31 30 30 30 30 31 32 32 31 30 28 29 29 30 31 32 34 34 33
Wind_Direction
283 242 187 173 194 188 181 165 142 353 89 137 273 227 246 204 162 134 124 121 128 123 79 83 83 87 80 89 101 82 47 35 46 77 138 134 145 159 151 143 155 154 151 151 138 132 131 113 101 92 88 85 89 98 100 96 87 77 67 66 64 66 67 67 66 65 66 62 58 58 54 51 54 53 57 62 62 58 57 57 51 51 49 45 49 48 39 33 25 14 17 10 12 23 18 24 39
276 232 181 155 161 167 184 140 70 320 61 312 264 198 252 8 114 168 174 179 145 135 112 95 86 76 73 78 79 68 45 45 77 101 115 133 144 153 155 151 154 148 144 147 133 140 136 104 96 91 90 98 108 110 98 85 77 74 69 66 65 63 64 69 68 63 70 71 63 65 59 52 55 49 46 51 51 50 50 49 47 45 39 38 44 43 38 38 32 22 15 3 12 18 13 29 43
273 232 184 163 151 117 130 104 60 132 119 250 267 256 226 86 218 222 200 160 130 132 122 98 75 47 52 63 46 54 58 57 90 112 120 138 144 146 159 152 150 140 131 139 121 140 138 107 97 92 99 110 105 96 86 78 75 79 73 68 68 62 62 70 69 62 67 69 63 67 63 56 56 51 47 49 49 48 47 44 45 44 38 37 36 35 35 41 40 26 11 6 10 11 14 27 40
253 194 146 161 146 80 65 96 87 133 167 232 271 288 196 174 224 237 192 126 135 142 129 91 62 47 63 65 43 65 69 64 99 122 130 147 147 148 157 148 145 131 116 116 94 122 133 113 99 95 110 108 78 70 78 83 80 86 81 78 78 68 66 68 66 65 67 63 59 62 59 57 56 53 51 49 50 48 45 41 41 42 40 37 32 31 31 33 36 26 14 7 5 9 13 15 29
162 135 117 151 144 87 69 96 92 127 203 199 248 274 213 199 221 231 103 117 144 148 118 96 85 70 69 57 45 62 62 75 116 135 138 151 151 149 152 147 142 128 112 103 105 119 118 107 100 102 110 91 73 75 79 83 81 90 87 82 85 72 64 61 63 63 59 57 56 56 55 55 54 52 51 48 47 43 40 38 36 35 35 33 29 28 25 25 24 20 14 8 7 9 10 7 11
141 134 116 122 115 110 106 104 119 236 238 175 223 261 214 204 201 159 104 104 114 129 109 101 112 98 77 52 49 49 67 94 130 149 143 148 151 151 149 147 141 127 115 105 113 114 107 102 102 107 108 85 86 91 85 89 86 93 89 79 94 84 71 67 65 61 57 58 55 55 54 53 51 49 46 44 42 39 37 35 32 30 29 27 24 21 17 18 18 16 13 10 9 6 5 2 356
144 131 99 96 85 83 111 142 190 233 244 178 207 253 246 225 175 134 104 96 75 83 103 112 117 102 71 34 47 45 86 125 140 153 147 150 150 150 150 148 139 120 111 107 110 107 105 105 105 107 108 104 103 103 96 99 85 84 84 71 84 78 66 64 62 60 59 58 55 55 52 50 49 45 39 37 33 31 31 29 28 26 24 21 18 15 9 10 12 13 10 9 8 4 1 353 345
161 134 83 96 56 32 100 187 225 214 245 230 251 284 270 210 152 124 79 79 80 66 96 119 110 87 53 65 64 47 93 129 140 150 147 148 151 151 153 151 139 119 113 113 113 110 112 111 110 112 106 101 94 89 81 88 83 79 81 71 71 65 59 58 57 57 54 53 52 51 47 44 41 36 29 28 25 22 22 20 19 18 16 14 11 8 4 1 2 4 4 7 8 2 355 345 337
176 152 97 97 88 54 82 236 266 252 257 316 327 331 336 141 127 114 72 68 91 65 63 145 103 89 89 75 74 76 99 121 132 137 143 148 153 153 150 144 137 124 120 120 121 124 127 117 112 115 100 99 95 93 90 86 86 77 71 68 64 61 57 51 48 47 43 42 39 37 35 32 28 24 17 17 17 15 15 12 11 10 9 7 4 1 358 356 355 356 356 1 3 356 348 337 331
177 173 149 107 146 144 279 263 277 257 262 355 2 10 37 99 103 96 89 86 86 71 69 100 100 108 103 70 73 92 108 128 130 132 144 150 152 150 143 132 129 124 125 125 130 135 134 125 121 125 114 117 114 100 92 82 86 81 70 65 60 57 53 45 41 37 31 26 23 25 25 21 18 14 9 7 7 7 7 7 6 6 6 3 359 356 354 352 351 352 351 354 352 345 338 329 325
184 192 156 115 137 162 215 236 260 261 316 354 21 25 45 95 94 76 77 83 71 78 75 85 96 103 96 72 81 108 126 136 128 135 145 149 147 143 132 122 120 118 125 130 138 141 140 138 134 136 128 129 115 91 86 82 93 96 75 68 64 58 49 40 28 17 11 10 11 14 13 11 8 4 2 359 358 0 2 2 3 6 9 5 359 353 351 350 348 348 346 347 344 336 331 325 321
199 178 115 111 180 193 201 196 225 245 347 10 12 18 51 79 79 63 67 64 47 61 45 80 121 103 88 76 103 128 140 137 130 137 144 143 137 126 119 116 119 120 129 140 145 145 143 142 130 120 101 88 86 76 67 63 72 83 76 73 63 38 25 19 9 4 1 0 1 4 3 358 356 356 355 354 354 357 360 360 1 4 6 5 360 352 348 348 347 344 340 337 336 331 325 321 318
198 156 114 141 193 173 170 165 202 153 25 31 18 25 64 67 55 52 73 55 37 49 45 95 131 101 96 99 115 135 135 132 132 136 139 132 125 119 121 123 129 133 138 146 145 141 133 126 113 94 88 88 89 83 77 77 87 93 74 40 14 9 4 1 359 357 353 352 354 355 352 348 348 349 349 350 352 353 355 356 356 355 353 353 351 347 344 347 346 338 332 325 323 322 318 318 316
202 191 137 181 147 148 156 147 202 107 51 358 26 44 68 63 51 60 67 54 29 41 72 105 122 99 116 117 116 134 129 133 136 135 133 125 127 127 130 133 136 139 141 145 139 132 124 125 122 104 101 100 102 103 100 103 111 81 31 10 3 360 354 350 350 350 347 345 346 345 341 340 341 342 344 344 347 347 348 350 350 347 344 344 341 341 340 341 340 331 326 319 317 317 317 319 315
206 213 114 145 29 193 203 118 155 111 58 4 72 68 68 57 65 62 49 58 36 59 116 103 108 103 136 147 134 136 133 137 136 134 131 126 130 129 131 135 136 140 141 144 137 129 128 127 120 109 109 107 107 112 114 114 82 21 6 357 352 347 342 338 339 341 340 337 336 335 333 333 335 336 339 339 341 342 342 343 343 341 340 340 337 338 338 335 333 328 325 320 318 318 316 318 316
204 204 73 84 297 254 265 122 118 104 153 144 100 78 70 54 70 66 48 83 69 72 103 68 74 113 137 137 134 136 134 136 136 137 135 129 130 128 129 131 134 139 140 143 138 130 131 130 121 119 118 112 109 106 105 61 11 1 352 340 336 332 330 330 332 332 329 329 327 327 327 327 330 331 333 334 336 336 336 337 336 337 337 336 335 336 336 334 332 329 327 324 322 319 316 317 317
200 187 67 11 208 174 211 181 158 129 150 134 69 87 101 74 73 76 71 81 71 71 80 73 88 108 114 121 130 134 134 137 140 142 137 131 131 131 130 132 137 138 139 142 140 137 139 140 134 134 131 119 130 118 328 337 342 342 338 330 330 328 329 329 327 330 328 327 325 324 324 323 325 326 329 330 331 331 331 333 334 335 335 335 334 335 334 332 332 330 329 327 325 321 317 316 317
181 122 112 218 193 161 253 200 158 125 119 75 65 88 108 98 74 85 73 64 65 74 75 82 96 102 109 122 131 134 138 140 144 147 141 136 138 138 136 140 143 141 144 146 146 148 150 153 151 153 157 150 166 193 288 320 328 330 333 331 333 330 329 329 328 331 331 330 328 325 323 322 323 324 326 328 329 331 332 332 333 333 334 334 334 333 332 331 330 329 328 327 326 324 319 316 315
158 92 111 240 192 78 333 195 145 117 127 102 80 83 81 71 75 92 80 47 56 69 66 84 93 99 113 124 133 137 142 142 146 152 146 143 146 144 143 145 147 145 148 150 153 157 160 163 164 165 154 145 156 169 308 321 323 324 328 327 328 327 325 327 331 333 333 332 328 326 325 324 327 328 330 332 332 332 331 331 331 332 331 331 331 331 330 329 328 328 327 326 324 323 321 318 316
165 102 114 233 176 62 25 100 121 123 126 104 83 87 70 59 88 100 101 65 49 53 51 79 88 96 112 122 134 140 143 142 144 149 147 147 149 148 148 148 149 146 146 152 158 159 160 162 164 161 144 141 152 153 317 311 312 314 316 319 318 317 319 324 329 332 333 334 333 333 333 334 335 336 335 333 332 330 328 328 328 328 327 327 326 326 326 326 326 325 324 323 322 321 320 318 317
97 89 161 185 148 72 47 96 111 115 115 105 96 91 71 64 82 98 109 82 40 39 57 83 94 104 116 125 134 141 145 142 139 142 142 143 146 147 147 147 148 145 143 150 154 152 151 153 157 158 155 166 204 273 290 295 300 305 306 308 309 309 312 318 324 327 329 331 333 336 336 337 334 331 330 328 328 327 326 325 325 324 323 323 322 322 322 321 321 320 320 320 319 318 317 316 316
76 46 47 104 123 89 76 100 106 110 107 100 87 80 86 82 67 63 91 92 57 56 82 108 111 117 126 130 135 142 144 141 139 138 138 138 140 141 140 142 142 141 143 147 147 147 149 153 159 163 181 212 240 270 285 294 297 301 302 305 308 310 313 318 323 324 326 328 331 332 330 329 327 325 325 325 325 324 324 324 323 323 322 322 321 320 319 318 317 317 316 316 316 315 315 314 313
98 29 36 62 103 104 106 102 105 112 98 86 85 94 105 93 66 59 78 85 103 107 114 121 120 127 133 137 141 143 141 140 140 137 138 138 138 138 136 138 138 141 146 146 145 148 154 160 169 182 207 233 258 278 288 293 295 300 307 314 318 319 323 326 328 329 330 331 331 329 327 326 326 325 324 323 323 323 323 323 323 323 322 321 320 319 318 317 315 314 314 313 313 312 311 311 310
102 55 49 70 91 97 105 105 105 103 93 91 102 100 91 91 86 70 76 86 108 115 121 123 126 132 138 144 143 142 141 141 141 138 140 140 139 138 137 139 139 144 150 147 147 152 158 164 172 189 211 234 260 277 285 292 295 303 312 321 326 330 333 333 333 335 334 332 331 329 328 327 326 325 324 323 323 323 323 322 322 321 320 319 318 317 316 315 314 312 311 310 309 309 308 307 307
82 106 90 86 89 96 104 101 99 96 96 101 95 86 82 91 96 80 79 99 110 116 122 124 130 135 140 142 138 140 141 140 140 138 139 140 141 142 142 144 145 152 158 152 153 158 160 163 170 189 211 233 260 276 288 298 305 310 318 325 330 334 334 334 334 333 332 331 330 328 327 326 325 324 323 322 322 321 321 320 319 318 317 317 315 314 313 311 311 309 308 307 306 306 305 305 304
97 116 108 102 99 103 105 97 95 97 100 102 91 82 92 94 87 72 81 110 115 123 124 128 136 136 135 133 134 137 137 137 138 139 140 139 142 147 148 150 155 164 169 164 165 169 165 166 182 203 225 251 276 292 300 309 319 321 325 330 333 334 330 330 330 328 328 327 326 326 325 324 324 323 322 321 321 319 318 317 316 315 314 313 312 311 310 308 307 306 305 304 303 302 302 301 301
115 108 99 101 104 106 105 102 101 96 94 102 101 86 74 84 92 81 111 121 122 131 126 131 137 132 131 131 133 135 136 137 137 142 143 142 147 155 155 157 167 173 172 174 175 177 176 181 201 218 236 267 288 302 310 314 322 326 327 330 330 328 327 327 326 325 324 324 323 323 322 322 321 321 321 319 319 318 317 315 314 313 311 310 308 307 306 305 303 302 301 301 300 299 298 298 297
117 107 90 86 100 100 98 108 107 91 95 102 100 86 53 52 85 121 155 136 131 137 129 131 133 130 131 133 135 137 139 139 142 148 149 153 159 163 165 167 176 176 173 180 182 181 187 197 209 222 231 253 277 287 309 314 318 324 325 328 327 326 327 325 324 323 323 322 321 321 320 319 319 318 318 317 316 316 314 313 312 310 309 307 305 304 302 301 299 298 297 296 295 294 294 293 293
117 107 100 95 103 88 57 104 116 95 133 114 86 72 34 23 81 136 153 144 141 138 132 132 133 134 137 139 141 143 146 147 153 160 163 166 167 171 174 173 179 182 182 184 183 184 190 194 197 199 198 210 254 279 305 317 319 324 326 326 326 326 325 324 323 323 322 322 321 320 319 318 318 317 316 315 314 313 312 311 309 308 306 305 303 301 299 298 296 294 293 291 290 289 288 287 287
111 95 111 148 106 20 359 23 150 98 127 261 271 66 354 326 140 153 150 146 148 139 137 139 139 143 145 149 152 153 156 160 167 171 172 173 171 175 179 177 179 185 189 182 180 184 187 186 184 187 198 231 275 300 310 317 321 323 325 325 325 324 324 324 323 323 322 322 321 320 319 318 318 317 315 314 312 311 310 309 307 306 304 302 301 300 298 297 295 294 292 290 289 288 287 286 285
103 86 100 116 112 357 18 25 22 107 22 325 173 129 258 234 184 174 167 159 161 148 144 147 149 153 155 160 162 163 164 167 174 173 173 175 175 178 182 182 179 184 185 178 182 185 186 192 195 215 253 280 294 307 312 317 321 322 324 324 324 323 322 322 321 322 322 322 321 320 319 319 318 317 316 314 313 312 311 309 307 305 304 303 301 301 299 298 296 295 294 293 291 290 289 288 287
64 110 209 15 112 188 7 27 28 102 15 35 93 143 238 227 195 188 195 194 190 167 156 158 160 162 165 168 169 169 168 169 173 173 175 176 178 180 182 183 179 181 182 181 190 193 197 210 226 251 279 295 302 311 315 318 320 322 323 323 324 323 322 321 320 320 321 321 320 319 319 319 319 318 317 316 315 314 313 310 308 306 305 304 303 302 301 300 298 297 297 296 295 293 292 291 290
3 104 184 215 128 161 299 34 27 10 294 22 27 151 174 247 187 184 200 195 190 173 164 168 170 170 172 173 175 175 172 172 174 175 176 177 179 181 182 183 183 184 188 193 199 206 216 230 253 270 284 297 306 312 316 319 321 323 324 324 324 323 321 320 320 320 321 321 320 320 320 320 320 319 318 317 317 316 314 312 309 307 306 305 304 303 302 301 300 299 299 299 298 296 295 294 292
308 46 99 85 128 126 109 27 14 16 61 40 29 119 157 216 165 174 194 188 188 178 171 176 176 177 180 181 182 181 179 179 179 180 180 181 183 184 185 188 190 193 197 205 211 221 232 247 264 278 289 299 307 312 316 320 322 324 324 325 324 323 323 321 322 323 324 324 323 323 322 321 321 320 319 318 317 316 314 312 310 308 307 306 305 303 301 301 300 301 300 299 300 299 299 298 295
190 94 121 108 77 87 66 327 343 16 60 75 59 101 152 184 164 181 190 188 193 185 180 184 184 185 187 188 189 186 186 186 186 187 185 187 189 190 193 196 199 204 209 216 224 234 244 257 269 280 290 298 305 310 315 318 321 322 323 324 324 323 322 322 323 325 326 326 325 324 323 321 321 320 319 318 316 315 313 311 309 308 308 306 305 303 301 300 299 300 300 300 299 300 301 302 299
151 137 122 120 94 52 48 130 351 45 64 52 55 126 166 184 190 193 191 195 200 193 189 190 192 195 194 195 195 192 193 193 192 192 192 194 197 199 202 205 210 214 219 225 232 241 248 259 268 277 286 293 302 308 313 316 318 320 321 322 322 320 320 322 322 322 323 323 321 320 320 318 318 317 317 315 314 313 311 311 309 308 308 306 306 304 303 302 302 303 303 302 302 300 301 302 302
111 101 82 91 105 78 263 205 315 26 76 9 9 125 174 196 211 208 198 199 200 192 192 197 201 202 202 202 201 200 200 199 198 198 199 200 203 207 210 214 218 222 227 232 238 245 251 260 268 276 285 293 302 308 313 316 318 321 323 324 324 323 323 323 323 321 321 320 318 318 317 316 315 314 313 312 312 311 310 309 308 308 307 306 305 305 305 305 305 306 305 305 305 303 302 303 303
81 97 100 69 84 140 179 198 316 350 88 76 55 123 205 222 224 217 201 198 207 201 199 207 208 209 212 211 209 208 205 204 205 204 205 207 210 213 216 220 224 228 233 237 242 248 255 263 271 279 289 297 304 309 313 317 320 324 328 329 328 328 327 325 325 323 321 320 318 317 316 313 312 311 311 310 309 309 308 307 306 305 305 304 304 304 304 304 305 306 307 306 306 306 305 306 307
79 90 108 74 80 149 239 319 356 8 86 175 172 153 247 247 240 226 209 206 216 215 215 219 217 216 217 217 217 214 210 209 211 211 212 213 216 219 222 225 228 232 236 241 246 252 260 267 276 286 295 302 306 311 315 319 322 324 328 330 330 328 328 326 325 323 321 320 318 316 314 311 310 309 308 307 307 307 306 305 304 303 303 302 302 302 302 303 304 306 307 308 307 307 306 306 309
84 92 98 125 162 145 225 269 20 25 64 140 145 112 285 259 263 245 222 218 226 230 229 232 230 227 226 227 225 221 217 216 216 217 218 219 221 224 227 229 232 235 239 244 250 257 265 273 282 292 300 306 309 313 317 319 322 323 324 327 328 327 326 324 323 323 321 319 317 316 315 312 311 310 308 308 307 307 306 304 302 301 301 301 300 301 301 302 303 305 306 308 308 307 305 304 307
23 99 112 141 193 189 181 169 116 49 32 96 122 26 299 229 232 252 230 222 233 241 235 233 233 233 236 236 233 229 226 224 223 223 223 224 226 229 232 234 236 240 243 248 254 262 269 277 286 295 304 310 313 316 317 318 320 320 320 322 324 324 323 322 321 322 322 321 320 319 317 315 314 312 310 309 307 306 305 303 301 300 299 299 298 298 299 301 301 303 305 306 307 308 306 303 304
8 256 163 167 183 166 123 122 109 48 1 204 132 37 294 249 228 240 229 213 233 240 234 232 232 232 233 233 233 233 231 230 231 232 232 232 233 235 237 238 240 244 247 252 259 266 273 280 288 298 306 309 311 313 313 314 316 316 317 319 321 323 324 324 323 324 325 324 322 321 319 316 313 311 309 306 304 303 302 301 299 298 297 296 296 296 297 298 299 300 302 303 304 306 305 303 302
49 268 144 140 143 136 142 144 113 72 253 236 111 129 268 305 257 239 219 212 237 237 233 235 233 230 230 231 233 233 232 232 232 235 237 238 239 239 240 241 244 248 252 256 261 267 274 281 288 295 300 302 304 307 308 310 311 313 315 317 319 322 324 325 324 325 326 325 324 322 319 316 312 309 306 303 300 299 298 297 296 295 295 294 293 294 295 296 297 298 299 301 302 302 303 302 301
73 282 111 130 136 146 164 155 123 163 150 64 71 145 271 284 266 257 203 214 244 244 239 239 234 231 231 233 234 234 234 233 232 234 235 237 240 241 243 246 249 253 256 257 262 270 276 281 285 289 292 295 299 301 303 306 308 310 312 315 317 318 322 324 323 323 323 324 323 322 318 315 312 309 306 302 299 297 295 294 294 293 292 291 290 291 292 294 295 296 297 298 299 299 300 300 299
264 247 124 161 155 151 155 136 118 111 71 7 240 193 294 266 264 343 152 213 247 244 238 234 231 230 231 233 235 236 236 236 236 237 237 238 240 242 246 250 254 257 256 259 267 274 276 275 278 282 286 290 294 296 299 302 305 307 310 313 313 315 318 320 321 321 322 322 322 322 318 314 310 307 304 301 299 297 295 293 293 292 291 291 290 290 291 292 293 295 295 296 296 297 298 297 295
221 132 70 90 89 86 105 113 113 48 20 254 220 175 190 275 262 353 111 223 244 241 239 233 230 229 230 232 235 236 237 237 238 239 240 242 243 246 250 253 255 255 256 261 266 269 269 270 273 277 281 285 288 292 295 298 300 303 306 309 310 311 314 318 320 320 320 321 322 322 319 314 311 308 305 302 300 298 297 294 293 292 291 290 290 291 292 292 293 294 295 295 295 295 295 294 292
141 103 61 69 56 45 65 64 87 66 290 262 216 178 167 295 263 210 189 215 224 226 236 236 229 229 230 232 234 235 236 236 237 239 241 243 245 248 251 252 253 253 254 257 259 262 265 269 272 274 277 279 283 287 289 292 295 299 302 305 306 307 310 315 318 318 319 319 320 321 318 314 310 308 306 304 302 300 299 297 295 293 291 290 291 292 293 293 293 294 294 294 294 294 293 292 290
106 80 64 82 25 16 27 358 44 130 256 271 234 171 157 244 258 231 219 230 222 209 222 227 221 224 228 230 233 235 236 236 238 239 240 242 244 246 247 249 251 250 251 253 256 261 264 267 271 272 274 276 280 283 284 287 291 296 300 302 304 305 308 312 315 316 318 318 319 319 315 311 308 306 304 302 301 300 299 298 297 294 291 290 291 293 294 294 293 293 293 294 293 292 292 291 289
73 61 67 83 357 9 341 309 314 219 246 274 356 126 175 241 251 249 237 237 231 217 220 223 221 224 228 230 232 234 235 236 238 239 241 242 243 245 246 248 250 250 251 254 257 260 263 266 268 270 273 276 278 280 281 285 290 294 298 299 301 302 304 309 313 314 316 316 317 316 312 308 305 304 303 301 300 299 299 299 298 296 293 291 291 293 294 294 293 292 292 293 292 291 290 290 289
44 84 86 82 64 49 287 274 283 262 263 286 332 351 269 271 267 249 235 233 234 232 233 235 236 238 239 238 235 235 235 237 238 239 241 242 243 246 248 251 253 253 255 257 258 261 263 265 266 269 273 275 275 277 280 283 288 291 294 296 297 299 301 307 309 311 312 313 314 313 309 305 303 303 302 301 300 299 300 301 299 297 295 293 291 292 293 292 292 292 291 292 291 289 288 288 288
14 138 109 100 145 147 239 239 223 261 280 299 318 284 216 229 266 244 242 261 259 250 245 242 245 250 251 250 243 238 237 237 239 240 241 244 246 248 250 253 255 256 258 258 259 260 261 263 265 268 272 273 273 275 278 281 285 289 291 292 294 296 299 303 306 307 309 311 312 310 306 302 301 301 301 300 300 300 301 301 300 298 296 294 291 290 291 292 292 291 290 291 290 287 285 285 287
335 137 89 42 181 147 156 208 189 214 319 303 280 237 216 221 262 261 280 293 280 261 250 241 242 245 245 247 244 240 238 238 239 240 242 244 247 249 251 254 256 257 258 259 259 260 261 263 265 268 271 272 271 273 276 280 283 286 288 290 292 294 297 300 302 304 307 310 310 307 303 301 301 301 301 301 299 299 300 299 298 297 296 293 290 290 292 293 293 291 289 290 289 287 284 284 286
27 62 217 236 170 119 100 248 307 64 319 285 269 262 286 320 289 297 0 309 282 265 251 238 238 240 239 242 243 241 240 239 240 241 244 247 249 251 253 254 256 258 258 259 260 261 262 264 267 269 270 269 270 272 275 278 281 283 286 288 290 292 295 297 299 303 307 309 308 305 302 301 301 302 302 301 299 298 298 298 297 295 294 292 290 292 294 295 295 291 289 289 288 285 285 286 288
86 339 222 206 99 78 92 292 346 34 248 272 290 267 285 327 285 317 1 301 271 255 242 240 242 241 238 241 243 244 244 243 243 245 247 250 251 252 254 255 257 258 259 260 262 263 263 265 267 268 268 269 271 272 273 276 278 281 284 286 288 290 292 294 298 303 307 307 305 303 301 300 301 301 301 299 298 297 297 297 296 293 291 290 291 293 295 296 295 290 288 287 287 286 287 287 289
137 182 167 117 121 287 56 150 282 327 272 278 297 291 274 202 229 280 279 249 251 247 234 234 240 237 235 240 244 247 248 247 246 246 248 250 251 253 254 255 257 258 259 260 262 262 262 263 265 266 269 271 271 271 272 274 277 280 283 285 286 287 290 293 298 304 305 304 302 300 298 298 299 299 298 297 296 296 296 295 294 292 291 291 292 294 296 296 293 288 287 288 289 290 290 290 291
85 110 48 53 138 182 197 150 177 209 261 273 311 320 280 217 207 223 231 231 232 235 228 222 231 233 235 240 246 249 250 250 249 249 250 252 254 255 256 257 258 259 259 261 261 260 259 261 264 267 271 271 270 269 271 273 277 279 281 282 283 285 289 294 299 303 302 300 299 297 296 296 296 296 296 296 295 295 295 294 293 292 291 292 293 294 295 295 291 286 287 290 292 294 294 294 294
137 153 268 294 98 153 237 248 147 145 183 233 284 300 274 250 190 200 226 231 221 219 218 222 231 236 240 244 249 253 254 254 254 253 253 256 258 259 260 259 259 259 259 259 257 256 258 261 266 270 271 270 268 268 270 273 275 277 277 279 282 285 289 295 299 301 299 297 296 294 294 293 293 293 293 294 294 294 295 295 294 292 292 293 293 294 295 293 288 285 287 291 295 297 297 297 296
155 180 199 194 163 132 141 288 291 106 163 197 170 266 275 268 169 206 228 227 226 223 220 231 240 243 247 251 254 257 258 260 260 258 258 259 260 261 261 260 259 257 255 254 253 255 260 265 269 271 270 268 267 268 270 272 273 273 275 278 281 285 290 295 298 297 295 294 292 291 291 291 290 291 292 292 292 293 294 294 293 291 291 292 292 293 293 289 285 284 287 292 296 298 298 297 296